Regional Weather Roundup
Issued by NWS

Home | Current Version | Previous Version | Graphics & Text | Print | Product List | Glossary On
Versions: 1 2 3 4 5 6 7 8 9 10 11 12 13 14 15 16 17 18 19 20 21 22 23 24 25 26 27 28 29 30 31 32 33 34 35 36 37 38 39 40 41 42 43 44 45 46 47 48 49 50
000
ASUS43 KDTX 230810
RWRMI
MICHIGAN HOURLY REGIONAL WEATHER ROUNDUP
NATIONAL WEATHER SERVICE DETROIT/PONTIAC MI
ISSUED BY NATIONAL WEATHER SERVICE GRAND RAPIDS MI
400 AM EDT SUN JUL 23 2017

NOTE: "FAIR" INDICATES FEW OR NO CLOUDS BELOW 12,000 FEET WITH NO
SIGNIFICANT WEATHER AND/OR OBSTRUCTION TO VISIBILITY.

MIZ047>049-052>055-059>063-066>070-074>076-081>083-230900-
SOUTHEAST LOWER MICHIGAN

CITY           SKY/WX    TMP DP  RH WIND       PRES   REMARKS
ADRIAN         CLEAR     68  65  90 N3        29.79F
ALMA           CLOUDY    65  64  97 W9        29.81R FOG
ANN ARBOR      CLOUDY    70  67  90 NW3       29.77F
BAD AXE        CLOUDY    65  65  98 CALM      29.79F FOG
DETROIT CITY   MOCLDY    71  67  87 NW5       29.76F
DETROIT        MOCLDY    71  67  87 NW6       29.78F
FLINT          MOCLDY    67  65  93 N6        29.78F
GROSSE ILE     CLEAR     70  66  87 NW6       29.76S
HILLSDALE      MOCLDY    66  64  94 CALM      29.79S FOG
HOWELL         CLOUDY    68  65  90 CALM      29.78F

CITY           SKY/WX    TMP DP  RH WIND       PRES   REMARKS
JACKSON        LGT RAIN  68  66  93 CALM      29.79F
LANSING        CLEAR     66  64  93 CALM      29.80S
MASON          CLOUDY    66  65  97 CALM      29.79F
MONROE         CLEAR     69  67  95 NW3       29.76S
MT. CLEMENS    CLOUDY    70  70 100 NW6       29.74F
PONTIAC        CLOUDY    69  66  90 NW8       29.77S
PORT HOPE        N/A     69  66  90 NE6       29.77F
PORT HURON     CLOUDY    70  66  88 NE3       29.76F
TRI CITIES     CLOUDY    66  66 100 N5        29.79F FOG
YPSILANTI      CLOUDY    71  68  90 CALM      29.78F
$$
MIZ043>046-050>051-056>058-064>065-071>073-077>080-230900-
SOUTHWEST LOWER MICHIGAN

CITY           SKY/WX    TMP DP  RH WIND       PRES   REMARKS
BATTLE CREEK   CLOUDY    69  69 100 CALM      29.80F
BENTON HARBOR  CLOUDY    67  66  97 CALM      29.79R FOG
BIG RAPIDS     CLOUDY    67  64  88 CALM      29.81F
COLDWATER      FOG       65  65 100 CALM      29.79F VSB 1/4
HOLLAND        FOG       67  66  97 CALM      29.81S VSB 1/4
GRAND RAPIDS   CLOUDY    71  70  96 CALM      29.80R
KALAMAZOO      FOG       68  65  90 NE5       29.79F VSB 1/4
MARSHALL       PTCLDY    69  68  98 CALM      29.78F FOG
MOUNT PLEASANT CLOUDY    66  64  94 CALM      29.80S FOG
MUSKEGON       FOG       68  67  96 CALM      29.80S VSB 1/4
STURGIS        FOG       67  67 100 CALM      29.79F VSB 1/4
$$
MIZ016>042-230900-
NORTHERN LOWER MICHIGAN

CITY           SKY/WX    TMP DP  RH WIND       PRES   REMARKS
ALPENA         CLOUDY    66  65  96 E5        29.80F
BEAVER ISLAND  CLOUDY    68  65  92 SE6       29.76S
BELLAIRE       CLOUDY    67  64  87 CALM      29.77S
CADILLAC       DRIZZLE   68  65  89 S8        29.78F
CHARLEVOIX     PTCLDY    67  65  91 E7        29.79S
GAYLORD        CLOUDY    64  60  87 S6        29.80F
HOUGHTON LAKE  CLOUDY    62  60  93 E3        29.81R
MANISTEE       CLOUDY    66  64  93 S3        29.74F
OSCODA         MOCLDY    64  63  96 CALM      29.79F FOG
PELLSTON       PTCLDY    63  62  97 E5        29.78F
TRAVERSE CITY  MOCLDY    69  65  86 CALM      29.75R
LUDINGTON      RAIN      65  65 100 S9        29.77F
$$
MIZ007>008-015-230900-
EASTERN UPPER MICHIGAN

CITY           SKY/WX    TMP DP  RH WIND       PRES   REMARKS
KINROSS        CLOUDY    65  59  81 E12       29.78F
MACKINAC ISLAN CLOUDY    65  65 100 E8        29.77F FOG
NEWBERRY       CLOUDY    65  64  97 SE7       29.76S
S. S. MARIE    CLOUDY    67  54  63 VRB6      29.79F
$$
MIZ004>006-011>014-085-230900-
CENTRAL UPPER MICHIGAN

CITY           SKY/WX    TMP DP  RH WIND       PRES   REMARKS
MANISTIQUE     MOCLDY    64  61  88 CALM      29.74F FOG
ESCANABA       CLEAR     59  59 100 CALM      29.75R FOG
MENOMINEE      CLEAR     65  64  97 CALM      29.75F
SAWYER-GWINN   FOG       63  62  97 NE5       29.77S VSB 1
$$
MIZ001>003-009>011-084-230900-
WESTERN UPPER MICHIGAN

CITY           SKY/WX    TMP DP  RH WIND       PRES   REMARKS
IRON MOUNTAIN  CLOUDY    65  62  90 W3        29.75F FOG
HOUGHTON       CLOUDY    57  53  86 E8        29.79F
COPPER HARBOR    N/A     56  53  90 VRB3      29.78F
IRONWOOD       FOG       58  57  97 NW10      29.81S VSB 1/4
$$

ABBREVIATIONS USED IN REMARKS
   TC - TEMPERATURE IN CELSIUS
  WCI - WIND CHILL INDEX
   HX - HEAT INDEX
  VSB - VISIBILITY





USA.gov is the U.S. government's official web portal to all federal, state and local government web resources and services.